This is the latest recevied weather packets stored in our database for station/object OM7ABC-17. If no packets are shown the sender has not sent any weather packets the latest 10 day(s).
| Time | Temp. | Humidity | Pressure | Rain* | Wind** | Luminosity | Snow |
|---|---|---|---|---|---|---|---|
| 1777831874 | 24.44° C | 26% | 994.9 hPa | - | - | - | - |
| 1777828274 | 23.89° C | 25% | 994.5 hPa | - | - | - | - |
| 1777827374 | 23.89° C | 25% | 994.5 hPa | - | - | - | - |
| 1777825574 | 24.44° C | 25% | 994.5 hPa | - | - | - | - |
| 1777824674 | 24.44° C | 25% | 994.6 hPa | - | - | - | - |
| 1777823774 | 24.44° C | 25% | 994.6 hPa | - | - | - | - |
| 1777819274 | 25° C | 24% | 995.1 hPa | - | - | - | - |
| 1777814773 | 25.56° C | 25% | 995.6 hPa | - | - | - | - |
| 1777813873 | 25.56° C | 25% | 996 hPa | - | - | - | - |
| 1777812073 | 26.11° C | 25% | 996.3 hPa | - | - | - | - |
| 1777811173 | 26.11° C | 25% | 996.5 hPa | - | - | - | - |
| 1777810273 | 26.11° C | 26% | 996.6 hPa | - | - | - | - |
| 1777809373 | 25.56° C | 26% | 996.7 hPa | - | - | - | - |
| 1777805772 | 25.56° C | 28% | 997.3 hPa | - | - | - | - |
| 1777803072 | 25° C | 30% | 997.6 hPa | - | - | - | - |
| 1777802172 | 25° C | 30% | 997.8 hPa | - | - | - | - |
| 1777800372 | 24.44° C | 31% | 998 hPa | - | - | - | - |
| 1777799472 | 23.89° C | 31% | 998.2 hPa | - | - | - | - |
| 1777798572 | 23.33° C | 30% | 998.3 hPa | - | - | - | - |
| 1777797672 | 23.33° C | 30% | 998.3 hPa | - | - | - | - |
| 1777796772 | 22.78° C | 30% | 998.4 hPa | - | - | - | - |
| 1777795871 | 22.78° C | 30% | 998.6 hPa | - | - | - | - |
| 1777794976 | 22.22° C | 29% | 998.6 hPa | - | - | - | - |
| 1777794076 | 22.22° C | 29% | 998.7 hPa | - | - | - | - |
| 1777793176 | 21.67° C | 29% | 998.5 hPa | - | - | - | - |
* Rain since midnight (hover to see other rain measurements)
** Current wind speed in m/s (hover to see current wind gust speed)